Track OPTUS B1 (AUSSAT B1) now! OPTUS B1 (AUSSAT B1) is classified as:
1 22087U 92054A 26255.58151191 -.00000123 00000-0 00000+0 0 9996 2 22087 13.0525 23.4408 0009887 139.7808 48.8546 0.99206732135570